User: anonymous   Login
Location: Unspecified
(0.0000°N, 0.0000°E)
Time: 21:52:22
(UTC+00:00)
Language:

DELFI-N3XT - Orbit

View from above orbital plane
View from above orbital plane
View from above satellite
View from above satellite

Ground track
Ground track

The orbit data is extracted from the following two-line orbital elements,

1 39420U 13066E   17082.93072168 +.00000268 +00000-0 +56000-4 0  9999
2 39420 097.6559 094.0126 0136844 294.2754 064.4205 14.61800816177913
Epoch (UTC): 23 March 2017 22:20:14
Eccentricity: 0.0136844
inclination: 97.6559°
perigee height: 590 km
apogee height: 784 km
right ascension of ascending node: 94.0126°
argument of perigee: 294.2754°
revolutions per day: 14.61800816
mean anomaly at epoch: 64.4205°
orbit number at epoch: 17791

The dashed part of the orbit path shows where the satellite is in the earth's shadow,  

DLR